User: anonymous   Login
Location: Unspecified
(0.0000°N, 0.0000°E)
Time: 19:09:04
(UTC+00:00)
Language:

OBJECT U - Orbit

View from above orbital plane
View from above orbital plane
View from above satellite
View from above satellite

Ground track
Ground track

The orbit data is extracted from the following two-line orbital elements,

1 43737U 18096U   18351.50807656  .00001294  00000-0  51138-4 0  9991
2 43737  97.4832  56.5492 0021478 266.2395  93.6388 15.27197644  2808
Epoch (UTC): 17 December 2018 12:11:37
Eccentricity: 0.0021478
inclination: 97.4832°
perigee height: 469 km
apogee height: 499 km
right ascension of ascending node: 56.5492°
argument of perigee: 266.2395°
revolutions per day: 15.27197644
mean anomaly at epoch: 93.6388°
orbit number at epoch: 280

The dashed part of the orbit path shows where the satellite is in the earth's shadow,  

DLR